EW5657 Weather Reports


time (UTC)temp
C
wind
direction
speed
KPH
gust
KPH
rain 1hr
cm
rain 24hr
cm
rain mn
cm
humidity
%
barometer
mb
20260505102211 16 262 0.0 3.2 0.00 0.00 0.00 71 1023.2
20260505101709 16 263 0.0 3.2 0.00 0.00 0.00 71 1023.3
20260505101209 16 263 0.0 4.8 0.00 0.00 0.00 71 1023.3
20260505100707 16 263 1.6 6.4 0.00 0.00 0.00 70 1023.3
20260505100207 16 263 0.0 6.4 0.00 0.00 0.00 70 1023.3
20260505095705 16 278 0.0 4.8 0.00 0.00 0.00 69 1023.2
20260505095206 16 278 0.0 4.8 0.00 0.00 0.00 69 1023.2
20260505094705 16 280 0.0 3.2 0.00 0.00 0.00 68 1023.2
20260505094205 16 281 0.0 3.2 0.00 0.00 0.00 67 1023.2
20260505093705 16 281 0.0 3.2 0.00 0.00 0.00 66 1023.2
20260505093205 16 281 1.6 9.7 0.00 0.00 0.00 65 1023.2
20260505092705 16 281 1.6 9.7 0.00 0.00 0.00 65 1023.2
20260505092213 16 278 3.2 9.7 0.00 0.00 0.00 65 1023.2
20260505092207 16 279 1.6 9.7 0.00 0.00 0.00 65 1023.2
20260505091205 16 274 4.8 9.7 0.00 0.00 0.00 65 1023.2
20260505090705 16 273 3.2 9.7 0.00 0.00 0.00 65 1023.2
20260505090205 16 268 1.6 9.7 0.00 0.00 0.00 65 1023.1
20260505085705 16 264 1.6 6.4 0.00 0.00 0.00 65 1023.1
20260505085206 16 264 1.6 9.7 0.00 0.00 0.00 65 1023.1
20260505084712 16 254 1.6 4.8 0.00 0.00 0.00 66 1023.0
20260505084705 16 263 3.2 9.7 0.00 0.00 0.00 65 1023.0
20260505084207 16 259 3.2 8.0 0.00 0.00 0.00 66 1023.0
20260505083205 16 254 1.6 4.8 0.00 0.00 0.00 67 1022.9
20260505082707 16 254 1.6 6.4 0.00 0.00 0.00 67 1022.9
20260505082213 15 251 0.0 3.2 0.00 0.00 0.00 69 1022.8
20260505082207 16 253 1.6 6.4 0.00 0.00 0.00 68 1022.9
20260505081831 15 251 0.0 3.2 0.00 0.00 0.00 70 1022.7
20260505080705 16 251 0.0 3.2 0.00 0.00 0.00 70 1022.6
20260505080207 16 251 0.0 0.0 0.00 0.00 0.00 70 1022.6
20260505075705 16 251 0.0 0.0 0.00 0.00 0.00 70 1022.5
20260505075210 16 251 0.0 0.0 0.00 0.00 0.00 70 1022.5
20260505075206 16 251 0.0 0.0 0.00 0.00 0.00 69 1022.5
20260505074829 16 251 0.0 1.6 0.00 0.00 0.00 69 1022.4
20260505074329 16 251 0.0 1.6 0.00 0.00 0.00 69 1022.4
20260505073207 16 251 0.0 1.6 0.00 0.00 0.00 70 1022.3
20260505072711 16 251 0.0 1.6 0.00 0.00 0.00 70 1022.3
20260505072707 16 251 0.0 1.6 0.00 0.00 0.00 70 1022.3
20260505071705 16 251 0.0 1.6 0.00 0.00 0.00 70 1022.3
20260505071211 16 251 0.0 3.2 0.00 0.00 0.00 70 1022.2
20260505071206 16 251 0.0 1.6 0.00 0.00 0.00 70 1022.2
20260505070205 16 251 0.0 3.2 0.00 0.00 0.00 70 1022.1
20260505065705 16 251 0.0 3.2 0.00 0.00 0.00 70 1022.1
20260505065205 16 251 0.0 3.2 0.00 0.00 0.00 70 1022.1
20260505064706 16 251 0.0 3.2 0.00 0.00 0.00 70 1022.0
20260505064205 16 251 0.0 3.2 0.00 0.00 0.00 70 1022.1
20260505063702 16 251 0.0 4.8 0.00 0.03 0.00 70 1022.0
20260505063203 16 251 0.0 4.8 0.00 0.03 0.00 69 1021.9
20260505062703 16 251 0.0 4.8 0.00 0.03 0.00 70 1021.9
20260505062205 16 250 0.0 4.8 0.00 0.03 0.00 70 1021.9
20260505061703 16 250 1.6 8.0 0.00 0.03 0.00 71 1021.9
20260505061210 16 252 1.6 6.4 0.00 0.03 0.00 70 1021.9
20260505061202 16 250 1.6 8.0 0.00 0.03 0.00 70 1021.9
20260505060830 16 256 0.0 3.2 0.00 0.03 0.00 69 1021.8
20260505060331 16 256 0.0 3.2 0.00 0.03 0.00 70 1021.8
20260505055832 16 256 1.6 4.8 0.00 0.03 0.00 69 1021.7
20260505054704 16 256 0.0 4.8 0.00 0.03 0.00 69 1021.7
20260505054200 16 256 1.6 6.4 0.00 0.03 0.00 68 1021.6
20260505053659 16 256 1.6 6.4 0.00 0.03 0.00 68 1021.6
20260505053158 16 256 1.6 4.8 0.00 0.03 0.00 68 1021.5
20260505052657 16 256 1.6 6.4 0.00 0.03 0.00 68 1021.5
20260505052157 16 257 1.6 8.0 0.00 0.03 0.00 68 1021.4
20260505051656 16 260 1.6 8.0 0.00 0.03 0.00 68 1021.4
20260505051202 16 262 3.2 11.3 0.00 0.03 0.00 68 1021.3
20260505051156 16 261 1.6 11.3 0.00 0.03 0.00 69 1021.4
20260505050202 16 237 3.2 9.7 0.00 0.03 0.00 68 1021.2
20260505050156 16 262 3.2 11.3 0.00 0.03 0.00 67 1021.3
20260505041654 16 272 3.2 8.0 0.00 0.03 0.00 67 1021.0
20260505041156 16 207 3.2 8.0 0.00 0.03 0.00 67 1021.0
20260505040656 16 212 3.2 12.9 0.00 0.03 0.00 66 1020.9
20260505040154 16 206 3.2 12.9 0.00 0.03 0.00 66 1020.9
20260505035652 16 244 1.6 8.0 0.00 0.03 0.00 67 1020.9
20260505035155 16 227 3.2 8.0 0.00 0.03 0.00 67 1020.8
20260505034652 16 224 3.2 8.0 0.00 0.03 0.00 67 1020.8
20260505034153 16 210 3.2 8.0 0.00 0.03 0.00 67 1020.8
20260505033652 16 240 3.2 8.0 0.00 0.03 0.00 67 1020.9
20260505033154 16 245 3.2 12.9 0.00 0.03 0.00 67 1020.9
20260505032652 16 202 1.6 12.9 0.00 0.03 0.00 67 1020.8
20260505032155 16 226 1.6 8.0 0.00 0.03 0.00 68 1020.9
20260505031653 16 224 3.2 8.0 0.00 0.03 0.00 67 1020.9
20260505031154 16 224 3.2 9.7 0.00 0.03 0.00 68 1020.9
20260505030652 16 203 3.2 9.7 0.00 0.03 0.00 67 1021.0
20260505030150 16 235 3.2 17.7 0.00 0.03 0.00 67 1020.9
20260505025650 16 212 3.2 17.7 0.00 0.03 0.00 67 1020.9
20260505025150 16 218 3.2 12.9 0.00 0.03 0.00 67 1021.0
20260505024652 16 208 3.2 12.9 0.00 0.03 0.00 67 1021.1
20260505024148 16 245 3.2 11.3 0.00 0.03 0.00 67 1021.1
20260505023651 16 246 3.2 14.5 0.00 0.03 0.00 67 1021.0
20260505023148 16 215 3.2 14.5 0.00 0.03 0.00 68 1021.1
20260505022652 16 207 3.2 12.9 0.00 0.03 0.00 67 1021.1
20260505022647 16 253 3.2 11.3 0.00 0.03 0.00 66 1021.1
20260505021644 16 253 3.2 11.3 0.00 0.03 0.00 66 1021.1
20260505021153 16 253 1.6 6.4 0.00 0.03 0.00 65 1021.2
20260505021148 16 223 1.6 6.4 0.00 0.03 0.00 66 1021.1
20260505020147 16 247 1.6 9.7 0.00 0.03 0.00 65 1021.2
20260505015643 16 248 3.2 9.7 0.00 0.03 0.00 65 1021.3
20260505015145 16 241 3.2 8.0 0.00 0.03 0.00 65 1021.3
20260505014650 16 313 3.2 11.3 0.00 0.03 0.00 65 1021.4
20260505014644 16 313 3.2 11.3 0.00 0.03 0.00 66 1021.3
20260505013642 16 291 1.6 9.7 0.00 0.03 0.00 67 1021.4
20260505013142 15 269 1.6 16.1 0.00 0.03 0.00 67 1021.5
20260505012642 15 269 3.2 16.1 0.00 0.03 0.00 66 1021.6
20260505012143 15 208 1.6 9.7 0.00 0.03 0.00 67 1021.6
20260505011642 15 194 1.6 11.3 0.00 0.03 0.00 68 1021.6
20260505011142 15 251 1.6 11.3 0.00 0.03 0.00 68 1021.5
20260505010642 15 253 3.2 11.3 0.00 0.03 0.00 69 1021.6
20260505010149 15 232 3.2 11.3 0.00 0.03 0.00 70 1021.4
20260505010143 15 258 3.2 11.3 0.00 0.03 0.00 69 1021.5
20260505005144 15 254 3.2 11.3 0.00 0.03 0.00 70 1021.4
20260505004642 15 262 1.6 11.3 0.00 0.03 0.00 71 1021.3
20260505004142 15 243 1.6 14.5 0.00 0.03 0.00 72 1021.3
20260505003643 15 207 1.6 14.5 0.00 0.03 0.00 72 1021.2
20260505003143 15 274 1.6 11.3 0.00 0.03 0.00 72 1021.2
20260505002642 15 277 1.6 14.5 0.00 0.03 0.00 72 1021.2
20260505002143 15 329 1.6 16.1 0.00 0.03 0.00 72 1021.1
20260505001649 15 265 1.6 12.9 0.00 0.03 0.00 72 1021.0
20260505001644 15 230 1.6 16.1 0.00 0.03 0.00 72 1021.0
20260505001309 15 185 1.6 12.9 0.00 0.03 0.00 72 1021.0
20260505000151 15 245 3.2 14.5 0.00 0.03 0.00 74 1020.8
20260505000143 15 251 3.2 20.9 0.00 0.03 0.00 72 1020.9
20260504235642 15 248 3.2 20.9 0.00 0.03 0.00 73 1020.9
20260504235310 15 313 3.2 11.3 0.00 0.03 0.00 75 1020.8
20260504234144 15 272 3.2 9.7 0.00 0.03 0.00 76 1020.8
20260504233639 15 230 3.2 9.7 0.00 0.03 0.00 76 1020.8
20260504233145 15 266 1.6 11.3 0.00 0.03 0.00 77 1020.7
20260504233139 15 2 1.6 8.0 0.00 0.03 0.00 77 1020.8
20260504232141 14 269 3.2 11.3 0.00 0.03 0.00 78 1020.7
20260504231639 14 232 1.6 9.7 0.00 0.03 0.00 78 1020.7
20260504231136 14 276 1.6 9.7 0.00 0.03 0.00 78 1020.5
20260504230637 14 278 1.6 6.4 0.00 0.03 0.00 79 1020.4
20260504230136 14 254 1.6 9.7 0.00 0.03 0.00 80 1020.4
20260504225640 14 268 3.2 14.5 0.00 0.03 0.00 81 1020.3
20260504225634 14 239 1.6 9.7 0.00 0.03 0.00 80 1020.3
20260504224636 14 265 3.2 19.3 0.00 0.03 0.00 81 1020.3
20260504224139 14 326 4.8 14.5 0.00 0.03 0.00 81 1020.2
20260504224133 14 293 4.8 19.3 0.00 0.03 0.00 81 1020.3
20260504223132 14 277 3.2 14.5 0.00 0.03 0.00 82 1020.1
20260504222629 13 302 4.8 24.1 0.00 0.03 0.00 82 1020.0
20260504222301 13 329 3.2 11.3 0.00 0.03 0.00 84 1019.7
20260504221758 13 288 3.2 8.0 0.00 0.03 0.00 84 1019.6
20260504220629 13 322 3.2 11.3 0.00 0.03 0.00 84 1019.5
20260504220130 13 315 3.2 11.3 0.00 0.03 0.00 84 1019.5
20260504215632 13 302 3.2 9.7 0.00 0.03 0.00 84 1019.4
20260504215130 13 294 3.2 11.3 0.00 0.03 0.00 85 1019.3
20260504214630 13 293 3.2 14.5 0.00 0.03 0.00 85 1019.2
20260504214130 13 287 4.8 14.5 0.00 0.03 0.00 85 1019.1
20260504213627 13 312 4.8 14.5 0.00 0.03 0.00 85 1019.0
20260504213129 13 296 3.2 14.5 0.00 0.03 0.00 86 1018.9
20260504212629 13 305 3.2 14.5 0.00 0.03 0.00 86 1018.9
20260504212128 13 321 3.2 12.9 0.00 0.03 0.00 85 1018.8
20260504211628 13 318 3.2 12.9 0.00 0.03 0.00 85 1018.6
20260504211127 13 308 4.8 16.1 0.00 0.03 0.00 85 1018.6
20260504210633 13 312 3.2 12.9 0.00 0.03 0.00 85 1018.4
20260504210627 13 312 4.8 16.1 0.00 0.03 0.00 85 1018.5
20260504205631 13 304 3.2 12.9 0.00 0.03 0.00 84 1018.4
20260504205627 13 304 3.2 12.9 0.00 0.03 0.00 84 1018.4
20260504204627 13 267 3.2 17.7 0.00 0.03 0.00 84 1018.3
20260504204129 13 310 4.8 17.7 0.00 0.03 0.00 84 1018.3
20260504203628 13 297 3.2 14.5 0.00 0.03 0.00 84 1018.3
20260504203127 13 344 3.2 12.9 0.00 0.03 0.00 84 1018.1
20260504202632 13 299 4.8 19.3 0.00 0.03 0.00 85 1017.8
20260504202627 13 297 3.2 16.1 0.00 0.03 0.00 85 1018.0
20260504202128 13 303 3.2 16.1 0.00 0.03 0.00 85 1017.9
20260504201127 13 299 6.4 19.3 0.00 0.03 0.00 85 1017.8
20260504200624 13 320 4.8 19.3 0.00 0.03 0.00 86 1017.8
20260504200125 13 319 4.8 17.7 0.00 0.03 0.00 86 1017.7
20260504195623 13 298 4.8 16.1 0.00 0.03 0.00 86 1017.6
20260504195131 13 303 4.8 12.9 0.00 0.03 0.00 85 1017.4
20260504195122 13 293 3.2 16.1 0.00 0.03 0.00 85 1017.5
20260504194622 13 298 4.8 12.9 0.00 0.03 0.00 85 1017.5
20260504194248 13 297 4.8 17.7 0.00 0.03 0.00 85 1017.4
20260504193122 13 311 6.4 19.3 0.00 0.03 0.00 84 1017.3
20260504192620 13 317 4.8 19.3 0.00 0.03 0.00 84 1017.3
20260504192119 13 314 6.4 20.9 0.00 0.03 0.00 83 1017.2
20260504191619 13 302 6.4 20.9 0.00 0.03 0.00 83 1017.2
20260504191117 13 285 4.8 19.3 0.00 0.03 0.00 82 1017.1
20260504190617 13 293 4.8 16.1 0.00 0.03 0.00 82 1017.0
20260504190117 13 331 3.2 16.1 0.00 0.03 0.00 82 1017.0
20260504185617 13 318 3.2 8.0 0.00 0.03 0.00 82 1016.9
20260504185117 13 322 3.2 17.7 0.00 0.03 0.00 82 1016.9
20260504184625 13 285 4.8 16.1 0.00 0.03 0.00 82 1016.7
20260504184619 13 324 4.8 17.7 0.00 0.03 0.00 82 1016.9
20260504184114 13 197 6.4 17.7 0.00 0.03 0.00 82 1016.6
20260504183115 13 307 4.8 17.7 0.00 0.03 0.00 82 1016.6
20260504182614 13 306 3.2 11.3 0.00 0.03 0.00 82 1016.5
20260504182113 13 305 4.8 12.9 0.00 0.03 0.00 82 1016.4
20260504181614 13 308 3.2 12.9 0.00 0.03 0.00 81 1016.4
20260504181114 13 307 4.8 17.7 0.00 0.03 0.00 81 1016.3
20260504180617 13 294 6.4 19.3 0.00 0.03 0.00 81 1016.2
20260504180611 13 310 6.4 17.7 0.00 0.03 0.00 81 1016.2
20260504175611 13 317 6.4 19.3 0.00 0.03 0.00 81 1016.1
20260504175113 13 303 4.8 14.5 0.00 0.03 0.00 81 1016.1
20260504174612 14 317 4.8 14.5 0.00 0.03 0.00 80 1016.0
20260504174111 14 315 6.4 20.9 0.00 0.03 0.00 80 1016.0
20260504173611 14 309 6.4 20.9 0.00 0.03 0.00 80 1016.0
20260504173114 14 302 4.8 16.1 0.00 0.03 0.00 80 1016.1
20260504172613 14 295 4.8 16.1 0.00 0.03 0.00 79 1016.0
20260504172111 14 301 4.8 19.3 0.00 0.03 0.00 79 1016.0
20260504171611 14 309 6.4 19.3 0.00 0.03 0.00 79 1016.0
20260504171112 14 291 8.0 20.9 0.00 0.03 0.00 79 1015.9
20260504170612 14 301 8.0 20.9 0.00 0.03 0.00 79 1015.9
20260504170111 14 310 8.0 19.3 0.00 0.03 0.00 78 1015.9
20260504151113 15 331 9.7 22.5 0.00 0.03 0.00 76 1015.1
20260504151107 15 318 8.0 22.5 0.00 0.03 0.00 76 1015.1
20260504150104 15 300 9.7 19.3 0.00 0.03 0.00 76 1015.1
20260504141110 15 299 11.3 29.0 0.00 0.03 0.00 75 1014.8
20260504141106 15 305 12.9 29.0 0.00 0.03 0.00 75 1014.9
20260504140735 15 289 11.3 22.5 0.00 0.03 0.00 76 1014.8
20260504130602 15 309 8.0 17.7 0.00 0.03 0.03 74 1014.5
20260504130109 15 300 6.4 16.1 0.00 0.03 0.03 74 1014.4
20260504130103 15 315 6.4 17.7 0.00 0.03 0.03 74 1014.5
20260504110553 16 347 9.7 17.7 0.00 0.03 0.03 74 1013.3